TimeEDT,TemperatureF,Dew PointF,Humidity,Sea Level PressureIn,VisibilityMPH,Wind Direction,Wind SpeedMPH,Gust SpeedMPH,PrecipitationIn,Events,Conditions,WindDirDegrees,DateUTC
12:52 AM,57.9,41.0,53,30.01,10.0,NE,11.5,-,N/A,,Clear,50,2013-05-17 04:52:00
1:52 AM,55.9,36.0,47,30.02,10.0,ENE,8.1,-,N/A,,Clear,60,2013-05-17 05:52:00
2:52 AM,55.0,36.0,49,30.00,10.0,ENE,9.2,-,N/A,,Clear,70,2013-05-17 06:52:00
3:52 AM,54.0,37.9,55,30.02,10.0,NE,6.9,-,N/A,,Clear,50,2013-05-17 07:52:00
4:52 AM,53.1,39.9,61,30.04,10.0,NNE,4.6,-,N/A,,Clear,30,2013-05-17 08:52:00
5:52 AM,50.0,39.9,68,30.05,10.0,ENE,3.5,-,N/A,,Clear,60,2013-05-17 09:52:00
6:52 AM,52.0,42.1,69,30.07,10.0,NNE,5.8,-,N/A,,Clear,30,2013-05-17 10:52:00
7:52 AM,57.0,46.0,67,30.07,10.0,ENE,11.5,-,N/A,,Clear,70,2013-05-17 11:52:00
8:52 AM,59.0,45.0,60,30.10,10.0,East,10.4,-,N/A,,Clear,80,2013-05-17 12:52:00
9:52 AM,64.0,42.1,45,30.11,10.0,East,10.4,-,N/A,,Clear,80,2013-05-17 13:52:00
10:52 AM,66.0,44.1,45,30.11,10.0,ENE,12.7,-,N/A,,Clear,70,2013-05-17 14:52:00
11:52 AM,68.0,43.0,40,30.11,10.0,ENE,15.0,19.6,N/A,,Clear,60,2013-05-17 15:52:00
12:52 PM,70.0,42.1,36,30.10,10.0,ENE,18.4,-,N/A,,Clear,60,2013-05-17 16:52:00
1:52 PM,71.1,39.0,31,30.10,10.0,ENE,17.3,-,N/A,,Clear,70,2013-05-17 17:52:00
2:52 PM,71.1,39.9,32,30.10,10.0,ENE,16.1,-,N/A,,Clear,70,2013-05-17 18:52:00
3:52 PM,70.0,37.0,30,30.09,10.0,East,11.5,19.6,N/A,,Clear,90,2013-05-17 19:52:00
4:52 PM,69.8,37.4,31,30.09,10.0,ENE,18.4,-,N/A,,Clear,70,2013-05-17 20:52:00
5:52 PM,68.0,37.0,32,30.08,10.0,ENE,12.7,24.2,N/A,,Clear,70,2013-05-17 21:52:00
6:52 PM,64.0,35.1,34,30.09,10.0,East,15.0,21.9,N/A,,Partly Cloudy,80,2013-05-17 22:52:00
7:52 PM,62.1,37.9,41,30.11,10.0,East,12.7,19.6,N/A,,Mostly Cloudy,90,2013-05-17 23:52:00
8:52 PM,60.1,37.9,44,30.11,10.0,East,12.7,23.0,N/A,,Scattered Clouds,90,2013-05-18 00:52:00
9:52 PM,57.9,39.9,51,30.12,10.0,East,6.9,-,N/A,,Clear,90,2013-05-18 01:52:00
10:52 PM,57.0,41.0,55,30.12,10.0,East,12.7,-,N/A,,Clear,80,2013-05-18 02:52:00
11:52 PM,55.9,41.0,57,30.14,10.0,Calm,Calm,-,N/A,,Clear,0,2013-05-18 03:52:00